Home > Time Zones > World Clock > Weather > U.S.A. > Yuma > Past weeks

Flag for U.S.A. Weather past 2 weeks in Yuma, Arizona, U.S.A.

Now
95 °F

Sunny.


Feels Like: 91 °F
Forecast: 73 / 95 °F
Wind: No wind

Location: Yuma Marine Corps Air Station

Current Time: Oct 1, 2014 at 5:38:10 PM

Latest Report: Oct 1, 2014 at 4:57 PM


Visibility: 10 mi

Pressure: 29.71 "Hg

Humidity: 15%

Dew point: 41 °F

Location of YumaLocation

Historic Weather in Yuma — Graph

°F

Yuma temperature yesterday

Maximum temperature yesterday: 94 °F (at 1:57 PM)
Minimum temperature yesterday: 69 °F (at 5:57 AM)
Average temperature yesterday: 82 °F

Past Weeks' High & Low Weather Summary

 TemperatureHumidityPressure
High108 °F (Sep 24, 3:57 PM)79% (Sep 25, 5:57 AM)29.91 "Hg (Sep 25, 5:57 AM)
Low68 °F (Sep 29, 4:57 AM)8% (Sep 27, 11:57 AM)29.60 "Hg (Sep 18, 4:57 PM)
Average89 °F34%29.76 "Hg
* Reported Sep 16 3:57 PM — Oct 1 3:57 PM, Yuma, Weather by CustomWeather, © 2014

Note: Actual official high and low records may vary slightly from our data, if they occured in-between our weather recording intervals... More about our weather records

Advertising

Yuma weather history for previous 24 hours

 ConditionsComfort  
Time TempWeatherWind HumidityBarometerVisibility
3:57 PM
Oct 1
95 °FPassing clouds.No wind16%29.70 "Hg10 mi
2:57 PM93 °FPassing clouds.3 mph22%29.70 "Hg10 mi
1:57 PM93 °FPassing clouds.No wind25%29.71 "Hg10 mi
12:57 PM91 °FPassing clouds.6 mph28%29.72 "Hg10 mi
11:57 AM90 °FSunny.6 mph32%29.74 "Hg10 mi
10:57 AM87 °FSunny.3 mph40%29.75 "Hg10 mi
9:57 AM85 °FSunny.5 mph32%29.76 "Hg10 mi
8:57 AM81 °FSunny.5 mph32%29.75 "Hg10 mi
7:57 AM77 °FSunny.5 mph35%29.74 "Hg10 mi
6:57 AM73 °FSunny.No wind37%29.71 "Hg10 mi
5:57 AM72 °FClear.6 mph40%29.70 "Hg10 mi
4:57 AM73 °FClear.5 mph43%29.68 "Hg10 mi
3:57 AM75 °FClear.5 mph43%29.67 "Hg10 mi
1:57 AM78 °FClear.5 mph39%29.68 "Hg10 mi
12:57 AM78 °FClear.3 mph35%29.68 "Hg10 mi
11:57 PM
Sep 30
77 °FClear.10 mph33%29.68 "Hg10 mi
10:57 PM79 °FClear.12 mph34%29.69 "Hg10 mi
9:57 PM79 °FClear.7 mph31%29.70 "Hg10 mi
8:57 PM82 °FClear.5 mph22%29.70 "Hg10 mi
7:57 PM85 °FClear.8 mph20%29.69 "Hg10 mi
6:57 PM88 °FClear.6 mph18%29.67 "Hg10 mi
5:57 PM92 °FSunny.6 mph13%29.67 "Hg10 mi
Weather by CustomWeather, © 2014

See weather overviewHow to use our weather pages